CST,Max TemperatureF,Mean TemperatureF,Min TemperatureF,Max Dew PointF,MeanDew PointF,Min DewpointF,Max Humidity, Mean Humidity, Min Humidity, Max Sea Level PressureIn, Mean Sea Level PressureIn, Min Sea Level PressureIn, Max VisibilityMiles, Mean VisibilityMiles, Min VisibilityMiles, Max Wind SpeedMPH, Mean Wind SpeedMPH, Max Gust SpeedMPH,PrecipitationIn, CloudCover, Events, WindDirDegrees
2001-1-1,14,4,-7,10,-3,-11,92,81,71,30.55,30.47,30.41,10,10,10,10,8,,0.00,3,,318
2001-1-2,21,10,0,18,8,-4,92,85,73,30.60,30.53,30.41,10,10,7,16,6,,0.02,7,,204
2001-1-3,37,27,17,27,20,14,93,77,60,30.34,30.19,30.10,10,8,5,13,7,,0.00,0,,233
2001-1-4,44,30,15,30,22,12,93,75,49,30.20,30.02,29.88,10,10,10,17,5,25,0.00,0,,220
2001-1-5,44,37,30,27,25,23,80,66,43,30.12,30.04,29.88,10,10,10,15,10,,0.00,0,,265
2001-1-6,48,34,21,32,26,18,86,71,50,29.92,29.82,29.77,10,10,10,13,6,17,0.00,0,,281
2001-1-7,39,32,26,30,28,23,86,78,70,30.16,30.08,29.93,10,10,10,21,10,28,0.00,4,,303
2001-1-8,39,30,21,28,21,16,86,69,48,30.20,30.16,30.13,10,10,10,14,7,,0.00,0,,303
2001-1-9,42,32,21,27,22,18,86,67,49,30.29,30.21,30.11,10,10,10,17,9,23,0.00,0,,163
2001-1-10,48,39,30,34,29,21,81,69,50,30.10,29.98,29.91,10,10,10,24,15,30,0.00,0,,182
2001-1-11,42,33,24,36,32,21,93,84,70,30.04,29.96,29.93,10,5,0,15,10,22,0.04,5,,195
2001-1-12,51,36,21,37,27,18,93,79,50,30.14,30.07,29.99,10,8,2,13,3,18,0.00,0,,107
2001-1-13,37,35,33,36,32,28,93,86,75,29.97,29.79,29.64,10,4,1,17,13,23,0.13,8,,132
2001-1-14,37,30,24,34,24,18,87,78,69,30.06,29.90,29.68,10,9,2,24,14,29,0.02,7,,289
2001-1-15,33,27,21,21,19,16,86,71,60,30.25,30.16,30.06,10,10,10,16,11,21,0.00,3,,298
2001-1-16,28,26,23,21,19,16,80,74,64,30.36,30.31,30.27,10,10,7,16,11,21,0.00,7,,347
2001-1-17,35,28,21,21,19,18,86,72,52,30.36,30.26,30.09,10,10,7,12,5,,0.00,4,,252
2001-1-18,37,28,19,28,21,9,86,75,54,30.20,30.07,30.01,10,9,4,31,10,37,0.00,5,,300
2001-1-19,21,12,3,9,1,-4,79,66,49,30.39,30.31,30.21,10,10,10,28,19,34,0.00,2,,335
2001-1-20,33,17,1,21,14,-2,92,66,48,30.32,30.18,30.12,10,10,7,20,8,22,0.00,0,,211
2001-1-21,37,26,15,21,16,10,86,71,48,30.39,30.33,30.20,10,10,7,12,8,,0.00,0,,319
2001-1-22,51,33,15,27,20,9,93,63,30,30.34,30.25,30.16,10,9,5,18,5,23,0.00,0,,212
2001-1-23,44,32,21,27,22,16,93,69,39,30.32,30.28,30.25,10,10,10,10,7,,0.00,1,,325
2001-1-24,35,24,14,25,16,7,93,66,37,30.50,30.40,30.27,10,10,10,18,6,23,0.00,1,,357
2001-1-25,35,19,3,25,8,-2,92,63,38,30.50,30.26,29.95,10,10,1,24,8,29,0.00,1,,145
2001-1-26,33,20,6,28,18,1,87,74,64,30.36,30.04,29.71,10,8,2,36,17,45,0.10,6,,303
2001-1-27,28,14,0,19,9,-6,92,75,59,30.42,30.34,30.27,10,10,10,10,5,,0.00,0,,226
2001-1-28,32,28,24,28,24,18,93,81,69,30.28,30.10,29.89,10,8,0,13,5,,0.20,7,,110
2001-1-29,32,30,28,28,26,21,93,86,74,29.87,29.51,29.18,10,5,0,13,8,,0.05,8,,307
2001-1-30,33,30,26,27,24,21,86,78,70,29.82,29.42,29.15,10,9,4,32,15,41,0.02,8,,302
2001-1-31,33,24,15,25,16,10,86,65,55,30.10,30.01,29.83,10,10,10,25,14,30,0.00,0,,283